Regional Weather Roundup
Issued by NWS

Home | Current Version | Previous Version | Graphics & Text | Print | Product List | Glossary On
Versions: 1 2 3 4 5 6 7 8 9 10 11 12 13 14 15 16 17 18 19 20 21 22 23 24 25 26 27 28 29 30 31 32 33 34 35 36 37 38 39 40 41 42 43 44 45 46 47 48 49 50
000
ASUS45 KTFX 300204
RWRMT
MONTANA HOURLY WEATHER ROUNDUP
NATIONAL WEATHER SERVICE GREAT FALLS MT
804 PM MDT TUE JUL 29 2014

NOTE: "FAIR" INDICATES FEW OR NO CLOUDS BELOW 12000 FEET WITH NO
SIGNIFICANT WEATHER AND/OR OBSTRUCTIONS TO VISIBILITY.

* THESE STATIONS ARE NOT UNDER NWS QUALITY CONTROL. THEY DO NOT
   REPORT WEATHER SUCH AS PRECIPITATION OR FOG.

MTZ001>007-043-300300-
WEST OF THE DIVIDE
CITY           SKY/WX    TMP DP  RH WIND       PRES   REMARKS
KALISPELL      PTCLDY    88  48  25 E7        30.05S
MISSOULA       MOCLDY    90  27  10 N13       30.05S
BUTTE          PTCLDY    79  43  28 E13G24    30.24R
MULLAN PASS    PTCLDY    77  37  24 N3        30.28S
* LINCOLN      N/A       85  43  23 NE7G12     N/A
* LOOKOUT PASS N/A       80  43  27 N/A        N/A
* POLSON       N/A       85  37  18 NE3        N/A
* RONAN APT    PTCLDY    91  45  20 N/A        N/A
* SEELEY LAKE  N/A       86  39  19 SE3G10     N/A
* THOMP F APT  PTCLDY    57  54  90 N7G26      N/A
* YAAK HILL    N/A      100  44  15 NW1        N/A
$$

MTZ008-052>055-300300-
SOUTHWEST MONTANA
CITY           SKY/WX    TMP DP  RH WIND       PRES   REMARKS
BOZEMAN        CLOUDY    75  45  34 N12       30.17R
DILLON         PTCLDY    73  48  41 NW5       30.20R
W YELLOWSTONE  CLOUDY    54  52  93 N3        30.38R
* THREE FORKS  MOCLDY    75  52  45 NE15G21    N/A
* BOULDER HILL N/A       73  42  33 N6         N/A
* MONIDA PASS  N/A       57  51  80 SE7        N/A
* RAYNOLDS PAS N/A       59  38  46 SE10G17    N/A
* WHITEHALL    N/A       87  42  21 E2G9       N/A
* WISE RIVER   N/A       78  39  25 SE6G13     N/A
$$

MTZ009>010-012-014-046-048-049-054-300300-
EAST SLOPES AND CENTRAL MONTANA
CITY           SKY/WX    TMP DP  RH WIND       PRES   REMARKS
CUT BANK       PTCLDY    82  45  27 SE5       30.15S
GREAT FALLS    PTCLDY    88  39  18 E6        30.12S
HELENA         MOCLDY    79  52  39 N6        30.13S
MALMSTROM AFB  PTCLDY    86  43  22 E7        30.13R
* CONRAD       PTCLDY    84  54  36 N/A        N/A
* DEARBORN     N/A       88  43  21 NE2        N/A
* EAST GLACIER N/A       76  47  36 S3         N/A
* MONARCH      N/A       81  39  22 E14        N/A
* ROGERS PASS  N/A       77  40  27 SE3G8      N/A
* SAINT MARY   N/A       81  58  46 S1         N/A   HI  81
* SWEET GRASS  N/A       88  41  19 S6         N/A
$$

MTZ011-013-016-021-035-040-045-047-050-051-300300-
NORTH CENTRAL MONTANA
CITY           SKY/WX    TMP DP  RH WIND       PRES   REMARKS
HAVRE          PTCLDY    90  45  21 E16G23    30.09S
LEWISTOWN      CLEAR     82  39  22 SE15      30.19S
* CHESTER      N/A       89  35  15 E5G10      N/A
* DENTON       N/A       87  43  21 E9         N/A
* GEYSER       N/A       84  43  24 E12        N/A
* JUDITH GAP   N/A       79  44  29 E12        N/A
* LOMA         N/A       90  38  16 E11        N/A
$$

MTZ017>020-022>027-061-062-300300-
NORTHEAST MONTANA
CITY           SKY/WX    TMP DP  RH WIND       PRES   REMARKS
GLASGOW        CLEAR     82  46  28 E12       30.13S
GLENDIVE       CLEAR     79  48  34 NE12      30.17R
JORDAN         CLEAR     86  37  17 E10       30.14S
SIDNEY         CLEAR     79  52  39 NE7       30.16S
WOLF POINT     CLEAR     82  48  31 NE12      30.14S
* BEAVER HILL  N/A       77  48  36 N10G17     N/A
* CIRCLE       N/A       83  50  32 NE8G14     N/A
* LINDSAY DVD  N/A       77  48  36 N8G14      N/A
$$

MTZ028>042-056>058-300300-
SOUTHCENTRAL AND SOUTHEAST MONTANA
CITY           SKY/WX    TMP DP  RH WIND       PRES   REMARKS
BAKER          CLEAR     79  43  28 NE9       30.17R
BILLINGS       PTCLDY    84  46  26 SE10      30.16R
LIVINGSTON     PTCLDY    81  46  29 E18G31    30.17R
MILES CITY     CLEAR     82  43  25 NE10      30.14R
* LAUREL APT   PTCLDY    82  52  35 S8         N/A
* ROUNDUP APT  CLEAR     86  37  17 E6         N/A
* ALZADA       N/A       76  51  42 SE3        N/A
* HYSHAM       N/A       83  43  24 E4G9       N/A
* LAME DEER    N/A       77  41  28 NE8        N/A
* REED POINT   N/A       83  51  33 E5G11      N/A
* ROSCOE HILL  N/A       74  46  37 E9         N/A
$$

REGIONAL REPORTS...DAKOTAS
CITY           SKY/WX    TMP DP  RH WIND       PRES   REMARKS
WILLISTON      CLEAR     79  55  44 NE9       30.15S
DICKINSON      CLEAR     68  57  68 E7        30.14R
CROSBY         N/A       68  64  87 N6        30.17S
TIOGA          CLEAR     68  68 100 E5        30.19S
WATFORD CITY   CLEAR     73  55  53 N7        30.13S
BISMARCK       CLEAR     73  57  57 NE7       30.13S
GRAND FORKS    PTCLDY    66  61  84 NW3       30.08S
FARGO          PTCLDY    70  55  59 CALM      30.08S
BUFFALO SD     PTCLDY    75  52  45 S5        30.11R
RAPID CITY     CLOUDY    66  52  61 SW8       30.22R
$$

REGIONAL REPORTS...WYOMING/IDAHO/WASHINGTON
CITY           SKY/WX    TMP DP  RH WIND       PRES   REMARKS
GILLETTE       CLOUDY    66  55  68 SW6       30.25S
SHERIDAN       MOCLDY    70  54  57 CALM      30.21S
YELLOWSTONE LA CLOUDY    55  48  77 NW3       30.43F
SALMON         MOCLDY    82  43  25 SE12      30.07R
MULLAN PASS    PTCLDY    77  37  24 N3        30.28S
SAND POINT     CLEAR     86  57  37 CALM      29.98S
SPOKANE        FAIR      97  36  12 W6        29.98F

$$




USA.gov is the U.S. government's official web portal to all federal, state and local government web resources and services.